AO-07 1 07530U 74089B 22146.73920109 -.00000035 00000-0 65874-4 0 9992 2 07530 101.9031 126.5417 0012650 83.4659 92.3961 12.53655085174986 UO-11 1 14781U 84021B 22145.52098221 .00001300 00000-0 16346-3 0 9996 2 14781 97.6160 134.0022 0009546 45.4975 314.7018 14.83643170 36642 LO-19 1 20442U 90005G 22146.66610155 .00000136 00000-0 66301-4 0 9991 2 20442 98.7924 111.1966 0010815 229.5434 130.4807 14.33058435690040 HUBBLE 1 20580U 90037B 22146.82705566 .00003020 00000-0 16787-3 0 9995 2 20580 28.4703 312.0965 0002613 155.2601 309.8298 15.10511406563208 MET-2/21 1 22782U 93055A 22146.24191330 .00000080 00000-0 58863-4 0 9993 2 22782 82.5516 31.8686 0023414 51.8433 68.2304 13.83853869450938 AO-27 1 22825U 93061C 22142.62889998 .00000170 00000-0 83617-4 0 9995 2 22825 98.8885 173.1183 0009408 123.1603 237.0482 14.30169275494469 IO-26 1 22826U 93061D 22146.78507055 .00000124 00000-0 65433-4 0 9993 2 22826 98.8825 177.2438 0010117 100.6644 259.5678 14.30515703495565 FO-29 1 24278U 96046B 22145.28887785 .00000001 00000-0 38613-4 0 9991 2 24278 98.5173 172.1594 0349944 343.5996 15.4048 13.53114855272479 NOAA-15 1 25338U 98030A 22146.81078338 .00000214 00000-0 10777-3 0 9996 2 25338 98.6453 176.6279 0010382 7.8522 352.2818 14.26130003250189 GO-32 1 25397U 98043D 22146.43222982 .00000082 00000-0 55405-4 0 9990 2 25397 98.8163 96.8437 0001755 133.1671 226.9654 14.23753987240290 ISS 1 25544U 98067A 22146.78315611 .00010516 00000-0 19396-3 0 9991 2 25544 51.6433 82.5958 0005031 160.2374 237.9832 15.49700356341869 NO-44 1 26931U 01043C 22145.38284697 .00000106 00000-0 72021-4 0 9993 2 26931 67.0499 117.9456 0007900 267.0293 92.9905 14.30700696 78102 SO-50 1 27607U 02058C 22146.23522426 .00000752 00000-0 12409-3 0 9991 2 27607 64.5560 9.8918 0077177 298.7674 60.5691 14.76105647 45093 CO-55 1 27844U 03031E 22146.76146688 .00000301 00000-0 15439-3 0 9992 2 27844 98.6787 154.7757 0010291 158.2014 201.9603 14.22443486980828 CO-57 1 27848U 03031J 22146.50661118 .00000291 00000-0 15137-3 0 9991 2 27848 98.6830 155.0486 0009912 172.5808 187.5518 14.22001727980598 RS-22 1 27939U 03042A 22146.84942582 .00001054 00000-0 19534-3 0 9991 2 27939 98.1879 287.5798 0011627 276.5887 83.3995 14.67333306997873 NOAA-18 1 28654U 05018A 22146.74660594 .00000159 00000-0 10992-3 0 9994 2 28654 98.9495 217.1991 0014771 37.2225 322.9967 14.12733648877001 CO-58 1 28895U 05043F 22146.44770015 .00001258 00000-0 24702-3 0 9991 2 28895 98.1031 278.1696 0016139 206.4037 153.6344 14.64309580884193 Falconsat-3 1 30776U 07006E 22146.40015271 .00039611 00000-0 63432-3 0 9992 2 30776 35.4327 44.5995 0003906 274.4991 85.5295 15.52068688846156 CO-65 1 32785U 08021C 22146.39673964 .00002873 00000-0 30679-3 0 9996 2 32785 97.6553 117.9471 0011290 312.5078 47.5185 14.89523944763208 AAUSAT2 1 32788U 08021F 22146.51919344 .00005693 00000-0 49466-3 0 9995 2 32788 97.5329 132.6153 0010843 184.6199 175.4925 14.97331644765159 DO-64 1 32789U 08021G 22146.53389565 .00014603 00000-0 82058-3 0 9999 2 32789 97.3406 173.6307 0011621 50.5524 309.6734 15.13341763768613 CO-66 1 32791U 08021J 22145.71705201 .00003324 00000-0 32828-3 0 9998 2 32791 97.6094 122.8087 0011001 265.4137 94.5826 14.92564750763809 RS-30 1 32953U 08025A 22146.80934911 .00000021 00000-0 80971-4 0 9999 2 32953 82.5047 197.3896 0018088 310.0105 49.9386 12.43110144635642 PRISM 1 33493U 09002B 22145.45987611 .00005942 00000-0 48656-3 0 9990 2 33493 98.2311 130.7271 0012369 237.5894 122.4131 14.99660779725543 NOAA-19 1 33591U 09005A 22146.81618838 .00000200 00000-0 13339-3 0 9997 2 33591 99.1492 180.4968 0012944 246.9239 113.0568 14.12568729685398 SRMSAT 1 37841U 11058D 22146.35506027 .00000427 00000-0 89731-4 0 9996 2 37841 19.9735 28.4918 0011943 101.6213 55.7769 14.10752402548117 HRBE 1 37855U 11061F 22146.27203655 .00018140 00000-0 79598-3 0 9997 2 37855 101.7057 253.6325 0154814 129.0044 232.5074 15.11878901577889 RS-40 1 38735U 12041C 22146.75609932 .00000028 00000-0 13127-3 0 9997 2 38735 82.4743 279.0182 0018052 60.8365 299.4520 12.42585701445828 ZACUBE-1 1 39417U 13066B 22146.63103671 .00002246 00000-0 27913-3 0 9991 2 39417 97.6345 119.1174 0059428 115.4580 245.2799 14.82263808459891 Delfi-N3xt 1 39428U 13066N 22146.32346410 .00004121 00000-0 63920-3 0 9991 2 39428 97.8134 81.6343 0117440 349.5115 10.3642 14.69093096455287 GOMX-1 1 39430U 13066Q 22146.73182759 .00002023 00000-0 36697-3 0 9993 2 39430 97.8107 55.1705 0150658 113.1420 248.5734 14.60131854453124 LO-74 1 39440U 13066AA 22145.82782465 .00001790 00000-0 24899-3 0 9994 2 39440 97.7238 104.3399 0078051 203.8214 155.9377 14.76950041456940 AO-73 1 39444U 13066AE 22146.39373312 .00003031 00000-0 36534-3 0 9997 2 39444 97.6218 121.2933 0058470 104.9146 255.8553 14.83328093458257 SPROUT 1 39770U 14029E 22146.56809174 .00009499 00000-0 97242-3 0 9995 2 39770 97.9376 263.3767 0008969 152.4697 207.6953 14.90698198434401 DTUSAT-2 1 40030U 14033W 22146.81944482 .00002957 00000-0 31311-3 0 9998 2 40030 97.9368 79.5018 0013071 120.9628 239.2875 14.89875720430937 EO-80 1 40032U 14033Y 22146.32108527 .00002539 00000-0 26984-3 0 9994 2 40032 97.9367 79.0149 0012990 123.2151 237.0314 14.89844572430322 HODOYOSHI-1 1 40299U 14070B 22146.78872814 .00007739 00000-0 29643-3 0 9999 2 40299 97.2437 215.5552 0011674 207.1604 291.1001 15.26744900419750 FIREBIRD FU3 1 40377U 15003B 22146.84175290 .00020353 00000-0 61606-3 0 9996 2 40377 99.1043 6.9451 0103143 98.5756 262.7182 15.29064917405120 FIREBIRD FU4 1 40378U 15003C 22146.54148014 .00021677 00000-0 65390-3 0 9992 2 40378 99.1047 6.7835 0103190 99.2245 262.0678 15.29148881405072 GRIFEX 1 40379U 15003D 22146.83612341 .00014423 00000-0 51324-3 0 9997 2 40379 99.1145 353.2983 0117664 139.4113 221.5965 15.22706369404340 XW-2A 1 40903U 15049E 22146.81811362 .00028449 00000-0 46123-3 0 9996 2 40903 97.1800 205.3312 0010166 188.8649 282.7879 15.52675906375900 XW-2C 1 40906U 15049H 22146.86316182 .00008743 00000-0 42098-3 0 9996 2 40906 97.4930 150.4529 0015775 76.3769 41.5648 15.18884789369647 XW-2D 1 40907U 15049J 22146.83031313 .00009804 00000-0 46339-3 0 9995 2 40907 97.4920 150.3820 0015155 72.2537 50.1968 15.19502835369685 LILACSAT-2 1 40908U 15049K 22146.84297547 .00004732 00000-0 25126-3 0 9996 2 40908 97.5159 147.6419 0017015 91.2521 29.5982 15.15683441369219 XW-2E 1 40909U 15049L 22146.86394972 .00015024 00000-0 63613-3 0 9998 2 40909 97.4649 154.8948 0013532 56.9480 62.6409 15.23186763370120 XW-2F 1 40910U 15049M 22146.78429488 .00015030 00000-0 64600-3 0 9996 2 40910 97.4725 153.9441 0014700 56.4020 63.4254 15.22660634369889 XW-2B 1 40911U 15049N 22146.85331228 .00009887 00000-0 46878-3 0 9999 2 40911 97.4899 151.0131 0014867 73.8057 45.7191 15.19394959369573 DCBB 1 40912U 15049P 22146.69881689 .00017121 00000-0 67210-3 0 9996 2 40912 97.4382 158.2117 0013580 27.4381 83.7312 15.25700378370437 TW-1A 1 40928U 15051D 22146.73005876 .00052363 00000-0 68996-3 0 9996 2 40928 97.0409 169.5970 0010260 107.4949 3.5130 15.58212810374856 IO-86 1 40931U 15052B 22146.70485494 .00000720 00000-0 10909-4 0 9998 2 40931 5.9999 324.1982 0013435 228.1813 131.7554 14.76804740360129 ATHENOXAT-1 1 41168U 15077C 22146.63660813 .00024043 00000-0 10266-2 0 9998 2 41168 14.9851 252.0951 0008974 291.0794 106.0820 15.20579186356986 ChubuSat-2 1 41338U 16012B 22146.45942539 .00002462 00000-0 18004-3 0 9995 2 41338 31.0014 163.9302 0013429 293.8157 66.1071 15.01310223344176 ChubuSat-3 1 41339U 16012C 22146.45342383 .00002961 00000-0 21738-3 0 9999 2 41339 31.0109 160.9127 0013360 300.5642 59.3675 15.01397745344171 Horyu-4 1 41340U 16012D 22146.39383765 .00004346 00000-0 30693-3 0 9992 2 41340 31.0032 139.9941 0013220 339.7593 20.2518 15.03199668344407 e-st@r-II 1 41459U 16025D 22146.53602227 .00011843 00000-0 51755-3 0 9992 2 41459 98.1831 310.0746 0145581 344.1151 15.5524 15.13134209334189 AAUSAT4 1 41460U 16025E 22146.73583688 .00018446 00000-0 71930-3 0 9998 2 41460 98.1809 316.2991 0126760 320.2439 38.9266 15.18771775334641 LO-87 1 41557U 16033B 22146.86935090 .00018781 00000-0 56671-3 0 9993 2 41557 97.3865 244.5385 0012273 96.5184 39.5200 15.34254670334074 NuSat2 1 41558U 16033C 22146.86099476 .00017279 00000-0 49061-3 0 9999 2 41558 97.4055 250.1138 0011632 86.1443 62.0702 15.36195761334331 Lapan A3 1 41603U 16040E 22146.79164867 .00002330 00000-0 10908-3 0 9997 2 41603 97.2076 184.7621 0011770 233.0998 247.6175 15.20620334328748 Pratham 1 41783U 16059A 22146.06782325 .00000690 00000-0 14161-3 0 9993 2 41783 97.9143 188.5176 0032153 243.2686 116.5224 14.63338762302356 TY-1 1 41844U 16066D 22146.85032586 .00019207 00000-0 66093-3 0 9998 2 41844 97.3905 158.9588 0013349 13.4439 108.9516 15.30020374308303 CAS-2T 1 41847U 16066G 22146.43297052 .00000524 00000-0 89926-4 0 9999 2 41847 98.5517 211.1238 0362738 275.7814 80.2135 14.38556605291185 EO-88 1 42017U 17008BX 22146.45569943 .00017654 00000-0 53795-3 0 9995 2 42017 97.2702 212.8971 0003764 336.4829 23.6242 15.34020734293707 CAS-4B 1 42759U 17034B 22146.83208412 .00005610 00000-0 33568-3 0 9995 2 42759 43.0168 91.8646 0007826 162.0713 240.9329 15.11763465273086 CAS-4A 1 42761U 17034D 22146.87074810 .00005595 00000-0 33395-3 0 9995 2 42761 43.0175 90.4539 0008334 164.4204 247.2233 15.11856938273092 NIUSat 1 42766U 17036B 22146.82477867 .00009815 00000-0 38271-3 0 9993 2 42766 97.2039 185.4215 0014848 50.3781 309.8766 15.26035751273503 Aalto 1 1 42775U 17036L 22146.59031269 .00009084 00000-0 36174-3 0 9997 2 42775 97.1992 185.1547 0013745 50.7175 309.5280 15.25368988273442 URSA MAIOR 1 42776U 17036M 22146.38223202 .00009610 00000-0 37664-3 0 9995 2 42776 97.2009 185.6608 0013423 50.3157 309.9263 15.25887981273449 Max Valier Sat 1 42778U 17036P 22146.36854725 .00009949 00000-0 38094-3 0 9998 2 42778 97.2073 188.2309 0012179 53.0110 307.2242 15.26671988273532 Pegasus 1 42784U 17036V 22146.70989008 .00011965 00000-0 43330-3 0 9996 2 42784 97.2010 189.3504 0011321 53.2396 306.9881 15.28473494273691 NUDATSat 1 42787U 17036Y 22146.56680887 .00029490 00000-0 92472-3 0 9999 2 42787 97.2049 193.1465 0009766 44.6665 315.5354 15.32964695273748 SUCHAI 1 1 42788U 17036Z 22146.07639479 .00018902 00000-0 64889-3 0 9994 2 42788 97.2016 190.3084 0010521 51.7671 308.4516 15.30128702273768 SKCUBE 1 42789U 17036AA 22146.38964207 .00014676 00000-0 51535-3 0 9997 2 42789 97.2015 190.1052 0010565 51.6549 308.5640 15.29443594273702 VZLUSAT 1 1 42790U 17036AB 22146.37665490 .00020116 00000-0 63540-3 0 9995 2 42790 97.2036 192.9326 0008939 46.1789 314.0191 15.32816059273862 VENTA 1 1 42791U 17036AC 22145.69441542 .00015692 00000-0 55994-3 0 9997 2 42791 97.2013 189.3378 0010503 54.3994 305.8224 15.28905082273588 Robusta 1B 1 42792U 17036AD 22146.09076787 .00016751 00000-0 57935-3 0 9992 2 42792 97.2013 190.3610 0010144 52.8914 307.3253 15.29914497273700 D-SAT 1 42794U 17036AF 22146.82729267 .00003161 00000-0 26993-3 0 9994 2 42794 97.4510 153.3828 0124112 156.8879 203.7992 14.92532709268289 TechnoSat 1 42829U 17042E 22146.82134491 .00001786 00000-0 18175-3 0 9993 2 42829 97.4236 2.2206 0015595 80.8608 279.4375 14.91816454264861 QIKCOM-1 1 42983U 98067NF 22145.56985036 .00146486 19212-4 42836-3 0 9996 2 42983 51.6296 302.7939 0004537 262.9004 97.1487 15.92500788261282 AO-91 1 43017U 17073E 22146.28316518 .00003086 00000-0 23760-3 0 9990 2 43017 97.6773 41.3807 0247471 260.3989 96.9187 14.81294002243832 PICSAT 1 43132U 18004X 22146.14325989 .00018990 00000-0 63640-3 0 9991 2 43132 97.3725 222.6503 0008951 83.1664 277.0595 15.30927504242996 AO-92 1 43137U 18004AC 22146.43632505 .00011355 00000-0 40489-3 0 9997 2 43137 97.3689 221.7963 0009198 84.6460 275.5829 15.29022487242979 TianYi 2 1 43155U 18008A 22146.77324313 .00011123 00000-0 59546-3 0 9990 2 43155 97.3534 205.8704 0015415 214.8283 241.3716 15.15093513239990 Zhou Enlai 1 43156U 18008B 22146.85456406 .00011668 00000-0 62910-3 0 9992 2 43156 97.3591 205.8190 0012742 214.9311 258.4288 15.14861085239939 TianYi 6 1 43158U 18008D 22146.76194780 .00010129 00000-0 56216-3 0 9991 2 43158 97.3530 203.7514 0012132 216.9575 282.7864 15.13871150239829 S-Net D 1 43186U 18014G 22145.98272237 .00002183 00000-0 19037-3 0 9997 2 43186 97.6595 52.1522 0011387 20.5156 339.6521 14.97839530235559 S-Net B 1 43187U 18014H 22146.31685149 .00001883 00000-0 16495-3 0 9997 2 43187 97.6598 52.4321 0011380 19.5056 340.6599 14.97838395235604 S-Net A 1 43188U 18014J 22146.31711941 .00001910 00000-0 16724-3 0 9994 2 43188 97.6603 52.4946 0011375 19.5828 340.5829 14.97837685235602 S-Net C 1 43189U 18014K 22146.18418476 .00001876 00000-0 16432-3 0 9994 2 43189 97.6593 52.2909 0011353 19.4965 340.6689 14.97834336234137 FMN 1 1 43192U 18015A 22146.76580640 .00039002 00000-0 10595-2 0 9991 2 43192 97.5314 291.3106 0011745 110.4805 357.0437 15.37404335240111 Shaonian Xing 1 43199U 18015H 22146.71954035 .00025056 00000-0 76751-3 0 9997 2 43199 97.5097 286.6619 0014229 118.0392 350.1489 15.33694370240114 SurfSat 1 43614U 18070B 22146.75586727 .00041234 00000-0 63954-3 0 9990 2 43614 93.0305 89.5426 0015222 101.9410 258.3559 15.53729684207693 CP-7 DAVE 1 43615U 18070C 22146.36207209 .00042208 00000-0 68063-3 0 9991 2 43615 93.0296 89.2476 0015232 103.9945 256.3012 15.52646967207605 ELFIN-B 1 43616U 18070D 22146.39631352 .00083465 00000-0 87267-3 0 9992 2 43616 93.0205 90.3004 0014409 99.8955 260.3940 15.64067165207903 ELFIN-A 1 43617U 18070E 22146.74855899 .00090622 00000-0 87744-3 0 9999 2 43617 93.0276 91.7503 0013650 96.8694 263.4128 15.65999233208000 CubeBel-1 1 43666U 18083E 22146.85052260 .00014860 00000-0 63410-3 0 9994 2 43666 97.4211 175.7839 0014431 54.5595 66.6470 15.22911100198196 Changshagaoxin 1 43669U 18083H 22146.80605444 .00013769 00000-0 61573-3 0 9995 2 43669 97.4172 171.7853 0011376 54.9079 49.0264 15.21366308198013 Ten-Koh 1 43677U 18084G 22146.80404119 .00001512 00000-0 15836-3 0 9995 2 43677 97.9609 276.6623 0015406 347.8770 12.2075 14.91050464194457 PO-101 1 43678U 18084H 22146.72259989 .00001510 00000-0 15412-3 0 9998 2 43678 97.9667 279.7378 0009820 5.6467 354.4873 14.92140035194618 IRVINE 01 1 43693U 18088D 22146.78671379 .00037809 00000-0 10573-2 0 9998 2 43693 85.0278 325.5252 0012797 185.1915 174.9204 15.36426213196890 QO-100 1 43700U 18090A 22146.62547066 .00000144 00000-0 00000+0 0 9991 2 43700 0.0177 49.5441 0001030 22.1880 63.3795 1.00273335 13059 Reaktor Hello World 1 43743U 18096AA 22146.15225756 .00017087 00000-0 52764-3 0 9993 2 43743 97.3528 226.1211 0016505 136.8521 223.4019 15.33478368194547 MinXSS-2 1 43758U 18099A 22145.72731667 .00004463 00000-0 38949-3 0 9990 2 43758 97.6244 214.1930 0014255 346.9996 13.0857 14.97248344189709 AO-95 1 43770U 18099N 22146.18918103 .00003428 00000-0 30746-3 0 9994 2 43770 97.6211 213.1171 0013676 356.7367 3.3763 14.96340035189684 RANGE-B 1 43772U 18099Q 22146.19273561 .00004166 00000-0 36703-3 0 9998 2 43772 97.6321 214.7428 0012804 342.2938 17.7836 14.96938579189705 RANGE-A 1 43773U 18099R 22145.70405414 .00002553 00000-0 23257-3 0 9997 2 43773 97.6132 211.5628 0012744 344.9747 15.1094 14.95959398189599 MOVE-II 1 43780U 18099Y 22145.29871820 .00005238 00000-0 45297-3 0 9998 2 43780 97.6247 213.3161 0012511 354.8515 5.2577 14.97551519189592 SNUSat 2 1 43782U 18099AA 22146.17189308 .00003032 00000-0 27142-3 0 9990 2 43782 97.6211 213.5564 0011859 341.5954 18.4837 14.96515278189707 SnugLite 1 43784U 18099AC 22146.14575527 .00003711 00000-0 32913-3 0 9997 2 43784 97.6187 213.1765 0014153 350.8601 9.2361 14.96725073189720 ITASat 1 1 43786U 18099AE 22146.18472331 .00002847 00000-0 25517-3 0 9993 2 43786 97.6236 214.0190 0014270 348.0990 11.9892 14.96499279189724 EAGLET 1 1 43790U 18099AJ 22146.14953666 .00002591 00000-0 23161-3 0 9998 2 43790 97.6234 214.5132 0012655 354.8390 5.2699 14.96699145189457 ESEO 1 43792U 18099AL 22146.14276983 .00001670 00000-0 15314-3 0 9998 2 43792 97.6189 213.7572 0012749 351.8811 8.2202 14.96157578189492 CSIM 1 43793U 18099AM 22146.15095745 .00005799 00000-0 49206-3 0 9998 2 43793 97.6271 215.0129 0011377 347.7460 12.3485 14.98251797189543 Astrocast 0.1 1 43798U 18099AS 22146.14956743 .00005082 00000-0 44040-3 0 9992 2 43798 97.6259 214.9390 0010787 331.1783 28.8842 14.97494688189772 JO-97 1 43803U 18099AX 22146.41022355 .00004085 00000-0 35948-3 0 9991 2 43803 97.6210 213.9887 0013977 349.0083 11.0832 14.96980710189779 Suomi 100 1 43804U 18099AY 22146.42663262 .00002482 00000-0 22091-3 0 9995 2 43804 97.6198 213.9314 0014296 347.6839 12.4031 14.96887705189785 Al Farabi 2 1 43805U 18099AZ 22146.88959255 .00006275 00000-0 54289-3 0 9994 2 43805 97.6235 214.8386 0014299 346.2906 13.7908 14.97438562189871 CHOMPTT 1 43855U 18104G 22146.49581879 .00009996 00000-0 37153-3 0 9990 2 43855 85.0373 65.7841 0013895 328.7074 31.3342 15.27294054191377 ISAT 1 43879U 18111D 22146.28657823 .00005025 00000-0 43087-3 0 9996 2 43879 97.6670 52.2970 0013941 42.6722 317.5580 14.97883472186359 UWE-4 1 43880U 18111E 22145.69112734 .00005484 00000-0 46791-3 0 9993 2 43880 97.6700 52.3983 0013393 46.0934 314.1392 14.98046515186291 Sparrow 1 43881U 18111F 22146.31166787 .00003687 00000-0 31508-3 0 9994 2 43881 97.6719 53.2274 0013464 38.4920 321.7261 14.98193553186399 Lume 1 1 43908U 18111AJ 22146.21119054 .00012021 00000-0 41380-3 0 9999 2 43908 97.1947 34.7215 0019854 147.9905 212.2547 15.30001295189992 FO-99 1 43937U 19003F 22146.33125250 .00013986 00000-0 47780-3 0 9991 2 43937 97.1321 180.5492 0019607 228.3792 131.5771 15.30215695186597 MYSat 1 1 44045U 18092F 22146.40477307 .00045127 00000-0 71166-3 0 9997 2 44045 51.6314 182.5670 0011679 16.9871 343.1508 15.53005414184447 AstroCast 0.2 1 44083U 19018F 22146.40427908 .00007250 00000-0 28274-3 0 9997 2 44083 97.3236 205.6998 0010981 196.8180 163.2696 15.26178872175128 AISTechSat 3 1 44103U 19018AB 22146.41048448 .00009663 00000-0 36438-3 0 9990 2 44103 97.3099 206.0981 0011692 205.9840 154.0814 15.27197926175289 AISat 1 1 44104U 19018AC 22146.20502171 .00009090 00000-0 25768-3 0 9994 2 44104 97.3956 229.2597 0052020 211.4940 148.3187 15.35100218176181 Prox-1 1 44339U 19036A 22146.17488595 .00004159 00000-0 89965-3 0 9993 2 44339 24.0010 334.1144 0011067 331.2525 28.7356 14.54949742155100 Oculus-ASR 1 44348U 19036K 22145.84361817 .00087995 -42167-5 87636-3 0 9991 2 44348 28.5034 348.0000 0250617 58.0057 304.4640 15.33872109161062 Armadillo 1 44352U 19036P 22146.73404557 .00214517 57088-5 11765-2 0 9992 2 44352 28.5222 272.4742 0147119 176.8492 183.3066 15.64435337161847 NO-104 1 44354U 19036R 22146.21510956 .00084185 -43069-5 79266-3 0 9990 2 44354 28.5245 332.2172 0240930 80.2735 282.4986 15.36825875161244 Move-IIb 1 44398U 19038N 22146.80775441 .00017217 00000-0 84014-3 0 9998 2 44398 97.6285 115.9637 0021054 198.1587 161.8897 15.18163974159752 SONATE 1 44400U 19038Q 22146.78642960 .00006944 00000-0 37874-3 0 9995 2 44400 97.6393 115.1968 0022612 204.6575 155.3577 15.14472822159659 BeeSat 9 1 44412U 19038AC 22145.42586246 .00008915 00000-0 45837-3 0 9990 2 44412 97.6336 114.5529 0019439 208.5456 151.4714 15.16536114159207 JAISAT-1 1 44419U 19038F 22146.67206159 .00009062 00000-0 45946-3 0 9992 2 44419 97.6333 116.6273 0018706 201.4432 158.6019 15.17034088159753 LightSail-2 1 44420U 19036AC 22146.71371971 .00080652 00000-0 10924-1 0 9992 2 44420 23.9995 274.3981 0016164 47.0227 313.1622 14.77362111153984 Taurus 1 1 44530U 19059C 22146.77847176 .00003924 00000-0 10896-2 0 9996 2 44530 98.5450 245.0825 0014121 178.8102 181.3116 14.46998838142717 Duchifat 3 1 44854U 19089C 22146.57253396 .00006209 00000-0 48313-3 0 9996 2 44854 36.9648 230.0500 0008083 34.7988 63.0501 15.00966182134642 OPS-SAT 1 44878U 19092F 22146.46931786 .00011051 00000-0 51831-3 0 9990 2 44878 97.4799 330.6151 0013622 61.0961 299.1639 15.19758455134854 TO-108 1 44881U 19093C 22146.76619520 .00001032 00000-0 13749-3 0 9991 2 44881 97.8919 226.2854 0013654 256.2149 103.7532 14.81706923131565 FloripaSat 1 1 44885U 19093G 22146.82264293 .00003330 00000-0 41495-3 0 9997 2 44885 97.8954 227.5651 0013176 262.0946 97.8746 14.83075400131646 RS-44 1 44909U 19096E 22146.37839088 -.00000009 00000-0 -78472-4 0 9995 2 44909 82.5226 244.9373 0217459 11.6598 348.9424 12.79713245112686 Phoenix 1 45258U 98067RB 22145.96846908 .00463050 10224-3 93445-3 0 9996 2 45258 51.6288 31.2386 0005877 193.1948 166.8908 15.99026652128870 BY70-2 1 45857U 20042B 22146.78681651 .00011971 00000-0 16018-2 0 9991 2 45857 97.9540 223.8382 0011581 178.4352 181.6844 14.79568580102254 UPMSat 2 1 46276U 20061E 22144.71008226 .00005309 00000-0 26420-3 0 9997 2 46276 97.3919 216.0769 0000643 155.9117 204.2148 15.18022807 95276 AmicalSat 1 46287U 20061R 22146.45018107 .00006107 00000-0 35438-3 0 9997 2 46287 97.4474 216.7168 0002642 31.4197 328.7191 15.12497004 95147 SALSAT 1 46495U 20068K 22146.41434443 .00002466 00000-0 18052-3 0 9993 2 46495 97.7281 87.7107 0016410 359.5065 0.6142 15.04428224 90878 BY70-3 1 46839U 20079N 22146.77129674 .00031583 00000-0 76037-3 0 9992 2 46839 97.1983 219.1613 0006444 60.5212 87.9115 15.41195887 86909 SPOC 1 46921U 98067RR 22144.81333319 .00341898 00000-0 10985-2 0 9994 2 46921 51.6290 52.2030 0004013 164.7936 195.3191 15.89517465 88245 Neutron-1 1 46923U 98067RT 22144.22833266 .00299512 00000-0 99538-3 0 9994 2 46923 51.6295 55.8134 0003687 156.9828 203.1343 15.88947350 88173 CAPE 3 1 47309U 21002A 22146.38043750 .00011965 00000-0 49274-3 0 9994 2 47309 60.6836 87.5604 0016884 310.0611 49.8995 15.24411029 75086 AO-109 1 47311U 21002C 22146.37523808 .00010317 00000-0 42009-3 0 9992 2 47311 60.6855 85.3368 0012434 309.3532 50.6454 15.24981626 75099 MiTEE 1 1 47314U 21002F 22145.18782287 .00023100 00000-0 80906-3 0 9993 2 47314 60.6830 83.8941 0010488 289.8350 70.1609 15.29439186 75039 ExoCube 2 1 47319U 21002L 22146.36769360 .00009987 00000-0 41203-3 0 9990 2 47319 60.6849 86.3725 0013827 313.4556 46.5380 15.24553600 75041 UVSQ-SAT 1 47438U 21006AB 22146.42639386 .00007014 00000-0 37351-3 0 9995 2 47438 97.4386 205.8912 0011514 359.7099 0.4124 15.15471988 73949 YUSAT 1 1 47439U 21006AC 22146.60060316 .00008037 00000-0 42274-3 0 9993 2 47439 97.4393 206.1407 0011134 358.7756 1.3448 15.15865363 73974 SOMP 2b 1 47445U 21006AJ 22146.42018067 .00007096 00000-0 38101-3 0 9994 2 47445 97.4357 205.5696 0011299 4.7995 355.3344 15.15177129 73938 IDEASSat 1 47458U 21006AX 22146.39975724 .00006384 00000-0 34487-3 0 9998 2 47458 97.4442 206.0250 0010442 3.1771 356.9526 15.15007340 73928 RSP-01 1 47925U 98067SB 22144.49016277 .00526851 12445-3 13063-2 0 9997 2 47925 51.6291 62.8068 0005126 172.3334 187.7753 15.95304158 68047 Tsuru 1 47927U 98067SD 22144.20015073 .00245909 00000-0 10755-2 0 9999 2 47927 51.6334 68.4126 0004711 141.3292 218.8049 15.83429577 67944 Maya-2 1 47929U 98067SF 22146.47530900 .00229593 00000-0 97315-3 0 9992 2 47929 51.6336 56.6025 0004712 161.3218 198.7959 15.84134980 68260 GuaraniSat-1 1 47931U 98067SH 22144.75343464 .00255147 00000-0 10965-2 0 9990 2 47931 51.6312 65.3701 0004346 146.1113 214.0168 15.83777666 68035 CubeSX-Sirius-HSE 1 47951U 21022V 22146.78453546 .00006945 00000-0 46163-3 0 9997 2 47951 97.5330 46.7598 0020045 216.3283 184.8182 15.07328029 64739 CubeSX-HSE 1 47952U 21022W 22146.84391519 .00006530 00000-0 43373-3 0 9996 2 47952 97.5321 46.8346 0019791 215.6526 212.0958 15.07383027 64745 KSU-Cubesat 1 47954U 21022Y 22146.20166981 .00006298 00000-0 41617-3 0 9991 2 47954 97.5333 46.2970 0019740 217.5298 142.4553 15.07587661 64374 GRBAlpha 1 47959U 21022AD 22146.77656009 .00006504 00000-0 43182-3 0 9992 2 47959 97.5322 46.8043 0019599 216.6034 214.2481 15.07402261 63553 Orbicraft-Zorkiy 1 47960U 21022AE 22146.75605569 .00006738 00000-0 44573-3 0 9991 2 47960 97.5334 46.9053 0019305 216.9420 228.5492 15.07530316 64247 STECCO 1 47962U 21022AG 22146.86466618 .00011222 00000-0 70327-3 0 9995 2 47962 97.5313 47.6285 0014794 208.0385 219.0665 15.09426133 63610 DO-111 1 47963U 21022AH 22146.19334781 .00019329 00000-0 10961-2 0 9990 2 47963 97.5347 47.8195 0016255 201.6585 158.3961 15.12902678 63582 MO-110 1 47964U 21022AJ 22146.30555061 .00008138 00000-0 50598-3 0 9997 2 47964 97.5335 47.3155 0017708 206.4168 153.6160 15.09768542 63546 FEES 1 48082U 21022AL 22146.24386575 .00011666 00000-0 71603-3 0 9994 2 48082 97.5341 47.1493 0013891 201.1716 158.8940 15.10185940 63234 RamSat 1 48850U 98067SL 22146.49854366 .00075008 00000-0 67147-3 0 9993 2 48850 51.6381 69.5561 0002392 61.0093 299.1143 15.67661511 53880 TUBIN 1 48900U 21059X 22146.76278485 .00006983 00000-0 39007-3 0 9998 2 48900 97.5503 276.2424 0010302 171.2144 294.9835 15.13783646 50633 IT-SPINS 1 49017U 21013G 22146.38934519 .00011669 00000-0 45632-3 0 9991 2 49017 51.5984 145.2627 0009502 2.0084 358.0931 15.26234853 50410 LEDSAT 1 49069U 21073D 22146.42865640 .00005088 00000-0 32710-3 0 9998 2 49069 97.5241 219.7549 0027186 13.1836 347.0097 15.08549373 42518 CUTE 1 49263U 21088D 22144.96136686 .00004807 00000-0 36064-3 0 9992 2 49263 97.5874 213.3541 0021545 139.9381 220.3438 15.02925937 35896 Binar-1 1 49272U 98067SR 22146.50896579 .00084660 00000-0 77352-3 0 9999 2 49272 51.6367 73.3525 0003148 163.6900 196.4198 15.67105363 36228 Maya-3 1 49273U 98067SS 22146.51690844 .00147145 00000-0 99352-3 0 9990 2 49273 51.6343 70.3924 0004067 158.8212 201.2956 15.74096874 36261 Maya-4 1 49274U 98067ST 22146.08942797 .00158497 00000-0 10934-2 0 9990 2 49274 51.6352 72.7822 0004250 153.6455 206.4760 15.73557939 36196 CUAVA-1 1 49275U 98067SU 22146.81898741 .00139796 00000-0 10869-2 0 9999 2 49275 51.6379 70.0393 0002470 155.3260 259.6688 15.70803796 36242 TeikyoSat 4 1 49396U 21102B 22146.55287291 .00001277 00000-0 10556-3 0 9998 2 49396 97.5270 205.3163 0015945 343.3244 16.7454 15.00578370 29767 Z-Sat 1 49399U 21102E 22146.78732559 .00002658 00000-0 20365-3 0 9991 2 49399 97.5360 206.1620 0022925 304.1041 55.8009 15.02488572 29837 KOSEN 1 1 49402U 21102H 22146.73135582 .00002185 00000-0 16391-3 0 9993 2 49402 97.5295 206.2150 0021113 296.1494 63.7559 15.03518750 29840 HO-113 1 50466U 21131B 22146.48174862 .00000452 00000-0 16239-3 0 9999 2 50466 98.5793 223.7425 0004123 197.0022 222.2854 14.38493733 21755 Tevel 1 50999U 22002R 22146.72055191 .00012487 00000-0 67742-3 0 9994 2 50999 97.4807 214.1438 0012767 131.2943 327.5180 15.14627238 20139 Grizu-263a 1 51025U 22002AT 22146.43420519 .00015273 00000-0 79014-3 0 9994 2 51025 97.4987 214.3283 0014402 137.9441 222.2900 15.16243405 20103 NO-116 1 51031U 22002AZ 22146.12706481 .00013782 00000-0 72896-3 0 9996 2 51031 97.4939 213.8925 0014515 138.4982 221.7355 15.15483837 20051 IRIS-A 1 51044U 22002BN 22146.12029182 .00005984 00000-0 33939-3 0 9996 2 51044 97.4829 213.4048 0010590 136.3419 223.8652 15.13289662 20035 DELFI-PQ 1 51074U 22002CU 22146.14038580 .00014936 00000-0 75714-3 0 9997 2 51074 97.5067 214.4001 0014759 166.9592 193.2025 15.16960568 20077 SO-115 1 51080U 22002DA 22146.16700827 .00009912 00000-0 51417-3 0 9998 2 51080 97.5082 214.3874 0014411 165.9752 194.1884 15.16259611 20073 SO-114 1 51081U 22002DB 22146.43156988 .00009053 00000-0 46984-3 0 9991 2 51081 97.5074 214.6338 0014806 165.0648 195.1025 15.16264701 20115 OreSat0 1 52017U 22026K 22146.49778650 .00007868 00000-0 42345-3 0 9998 2 52017 97.5015 146.6311 0026970 354.4919 5.6012 15.14797824 10862 /EX